Regional Weather Roundup
Issued by NWS

Home | Current Version | Previous Version | Graphics & Text | Print | Product List | Glossary On
Versions: 1 2 3 4 5 6 7 8 9 10 11 12 13 14 15 16 17 18 19 20 21 22 23 24 25 26 27 28 29 30
000
ASUS45 KBOU 292007
RWRCO

WEATHER ROUNDUP FOR COLORADO
NATIONAL WEATHER SERVICE DENVER/BOULDER CO
200 PM MDT WED OCT 29 2014

NOTE: "FAIR" INDICATES FEW OR NO CLOUDS BELOW 12000 FEET WITH NO
SIGNIFICANT WEATHER AND/OR OBSTRUCTIONS TO VISIBILITY.

COZ001>005-013-030-031-292100-
...NORTHWEST COLORADO...

CITY           SKY/WX    TMP DP  RH WIND       PRES   REMARKS
CRAIG          MOSUNNY   61  22  22 W13       30.26F
HAYDEN         MOSUNNY   55  19  24 W8        30.27F
MEEKER           N/A     61  20  20 NW13      30.27F
MOUNT WERNER   NOT AVBL
STEAMBOAT SPGS SUNNY     54  19  25 E5        30.28F
WALDEN         SUNNY     50  21  32 SW16      30.29F
$$

COZ006>008-011-292100-
...WEST CENTRAL VALLEYS...

CITY           SKY/WX    TMP DP  RH WIND       PRES   REMARKS
GRAND JUNCTION SUNNY     59  12  15 VRB3      30.28F
MONTROSE       SUNNY     60  19  20 N7        30.30F
EAGLE          SUNNY     57  16  19 SW16G22   30.29F
RIFLE          SUNNY     57  11  16 CALM      30.28F
DELTA          SUNNY     63  12  13 W5        30.28F
NUCLA          SUNNY     61  14  16 CALM      30.35F
$$

COZ017>023-064>068-292100-
...SOUTHWEST COLORADO...

CITY           SKY/WX    TMP DP  RH WIND       PRES   REMARKS
DURANGO        SUNNY     62  19  19 SW9G16    30.30F
CORTEZ         SUNNY     65  14  14 CALM      30.30F
PAGOSA SPRINGS SUNNY     59  12  15 S7        30.33F
TELLURIDE      SUNNY     55   8  14 SW12G18   30.42F
WOLF CREEK PAS SUNNY     43  10  26 MISG      30.49F
$$

COZ009-010-012-014-032>034-037-058>063-292100-
...CENTRAL COLORADO...

CITY           SKY/WX    TMP DP  RH WIND       PRES   REMARKS
ASPEN          SUNNY     57  17  21 N8G20     30.32F
BUENA VISTA    SUNNY     63   7  11 W15G26    30.25F
COPPER MTN     SUNNY     37  10  32 W22G32    30.45F
BERTHOUD PASS  FAIR      30  27  86 W29G38    30.44S WCI  15
COTTONWOOD PAS SUNNY     55   1  11 NW5       30.34F
GUNNISON       SUNNY     54  16  22 SW7       30.36F
KREMMLING      SUNNY     54  14  20 CALM        N/A
LEADVILLE      SUNNY     47   9  21 NW17G28   30.37F
MONARCH PASS   SUNNY     37  12  35 W31G43    30.56F
SALIDA         SUNNY     65  10  11 W16G25    30.31F
SUNLIGHT       SUNNY     46  18  31 SW5       30.46F
WILKERSON PASS NOT AVBL
$$

COZ069>075-292100-
...SAN LUIS VALLEY/SANGRE DE CRISTO MOUNTAINS...

CITY           SKY/WX    TMP DP  RH WIND       PRES   REMARKS
ALAMOSA        SUNNY     58   7  13 CALM      30.30F
LA VETA PASS   SUNNY     50  10  20 S15G25    30.36F
SAGUACHE       SUNNY     57  14  18 SE6       30.31F
$$

COZ035-036-038>040-292100-
...NORTHERN COLORADO FRONT RANGE...

CITY           SKY/WX    TMP DP  RH WIND       PRES   REMARKS
DENVER INTL AP MOSUNNY   70  16  12 W12G20    30.10F
DMNS CITY PARK   N/A     71  14  11 N2G8      30.10F
AURORA         MOSUNNY   66  15  13 VRB6      30.12F
FRONT RANGE AP MOSUNNY   70  18  13 NW13G24   30.12
ERIE MUNI ARPT SUNNY     70  15  12 NW8G16    30.09F
BOULDER MUN AP SUNNY     70  19  14 W15G22    30.08F
CENTENNIAL     MOSUNNY   67  11  11 CALM      30.12F
BROOMFIELD     MOSUNNY   70  19  14 W23G35    30.11F
FORT COLLINS   SUNNY     66  25  20 NE7       30.11F
LONGMONT       SUNNY     74  20  13 CALM      30.09F
$$

COZ041-046-047-076>085-087-088-292100-
...PIKES PEAK/PALMER DIVIDE AND SOUTHERN FOOTHILLS...

CITY           SKY/WX    TMP DP  RH WIND       PRES   REMARKS
COLO. SPRINGS  MOSUNNY   66  12  12 S6        30.15F
A. F. ACADEMY  SUNNY     65  11  12 SE6       30.15F
ELLICOTT       SUNNY     63  11  13 S5        30.15F
FALCON         SUNNY     65  12  12 SE5       30.19F
FORT CARSON    SUNNY     66  13  12 E6        30.13F
LIMON          SUNNY     68  10  10 VRB6      30.12F
MONUMENT HILL  SUNNY     63  10  13 CALM      30.17F
TRINIDAD       SUNNY     68  14  12 E9        30.14F
$$

COZ042>045-048>051-090-091-292100-
...NORTHEAST COLORADO...

CITY           SKY/WX    TMP DP  RH WIND       PRES   REMARKS
GREELEY ARPT   SUNNY     66  19  16 CALM      30.10F
AKRON          SUNNY     68  16  13 W10       30.07F
BURLINGTON     SUNNY     70  17  13 NW7       30.08F
WRAY           SUNNY     74  16  10 SW5       30.05F
STERLING       SUNNY     70  28  21 SW12G21   30.04F
HOLYOKE        SUNNY     73  21  14 SW10      30.04F
FORT MORGAN    SUNNY     69  16  13 W9        30.09F
$$

COZ086-089-092>099-292100-
...SOUTHEAST COLORADO...

CITY           SKY/WX    TMP DP  RH WIND       PRES   REMARKS
PUEBLO         SUNNY     70  13  11 SE5       30.09F
LA JUNTA       SUNNY     70  21  15 CALM      30.09F
LAMAR          SUNNY     68  24  19 VRB3      30.08F
SPRINGFIELD      N/A     68  24  19 VRB3      30.11F
$$



USA.gov is the U.S. government's official web portal to all federal, state and local government web resources and services.